FORMOSAT-5

Last updated on Mon Oct 14 2024 00:02:25 GMT+0000 (Coordinated Universal Time)

1 42920U 17049A 24287.47117239 .00001320 00000+0 34605-3 0 9991 2 42920 98.2827 3.4180 0012454 157.2556 202.9193 14.50785920377978
UTC large
Height (km)
Speed (km/s)
/
Latitude / Longitude
Inclination (degrees)
Orbital Period (minutes)
Azimuth
Elevation
Range (km)
Doppler Factor

Next 0 passes for location: London (51.5072 / 0.1276)

Sorry there are no passes over London.